Regional Weather Roundup
Issued by NWS Glasgow, MT

Home | Current Version | Previous Version | Text Only | Print | Product List | Glossary On
Versions: 1 2 3 4 5 6 7 8 9 10 11 12 13 14 15 16 17 18 19 20 21 22 23 24 25 26 27 28 29 30 31 32 33 34 35 36 37 38 39 40 41 42 43 44 45 46 47 48 49 50
000
ASUS45 KGGW 092015
RWRGGW
HOURLY REGIONAL WEATHER ROUNDUP FOR NORTHEAST MONTANA
NATIONAL WEATHER SERVICE GLASGOW MONTANA
100 PM MST TUE FEB 09 2016

NOTE: "FAIR" INDICATES FEW OR NO CLOUDS BELOW 12,000 FEET WITH NO
SIGNIFICANT WEATHER AND/OR OBSTRUCTIONS TO VISISBILITY.

NORTHEAST MONTANA


CITY           SKY/WX    TMP DP  RH WIND       PRES   REMARKS
GLASGOW        SUNNY    N/A N/A N/A W9        30.14F
PLENTYWOOD       N/A     34  21  59 W3          N/A
WOLF POINT     MOSUNNY   45  31  58 SW3       30.15F
JORDAN           N/A     51  34  52 W8        30.17F
WINNETT          N/A     63  24  22 CALM        N/A
SIDNEY         CLOUDY    41  21  45 NW3       30.17F
GLENDIVE       CLOUDY    46  32  57 W7        30.17F
MALTA            N/A     50  35  56 SW10        N/A
SCOBEY           N/A     41  22  47 CALM      30.10F

FORT PECK REPORTS


CITY           SKY/WX    TMP DP  RH WIND       PRES   REMARKS
FORT PECK        N/A     41  33  73 S6          N/A
THE PINES        N/A     51  29  42 W6          N/A

SOUTHEAST MONTANA


CITY           SKY/WX    TMP DP  RH WIND       PRES   REMARKS
BILLINGS       MOSUNNY   58  25  28 SW17      30.23F
MILES CITY     SUNNY     54  32  43 W9        30.17F
BAKER          CLOUDY    44  28  53 W15       30.16F
LIVINGSTON     SUNNY     57  20  23 SW24G32   30.31F

CENTRAL MONTANA


CITY           SKY/WX    TMP DP  RH WIND       PRES   REMARKS
HAVRE          SUNNY     54  30  40 SW17      30.18F
LEWISTOWN      SUNNY     53  28  38 W5        30.22F
GREAT FALLS    SUNNY     61  27  27 SW20      30.21F
CUT BANK       SUNNY     65  20  17 W20       30.16F
HELENA         SUNNY     46  33  60 W5        30.36F
BUTTE          SUNNY     29  26  89 CALM      30.40F
BOZEMAN        SUNNY     37  27  67 E3        30.39F

WESTERN MONTANA


CITY           SKY/WX    TMP DP  RH WIND       PRES   REMARKS
MISSOULA       SUNNY     30  27  88 CALM      30.44F
KALISPELL      NOT AVBL

NORTH DAKOTA


CITY           SKY/WX    TMP DP  RH WIND       PRES   REMARKS
WILLISTON      CLOUDY    35  23  61 W3        30.16F
DICKINSON      CLOUDY    37  22  54 NW14      30.12F
MINOT          MOSUNNY   39  16  39 NW7       30.14F
BISMARCK       MOSUNNY   40  14  34 W10       30.17F

SOUTHERN SASKATCHEWAN


CITY           SKY/WX    TMP DP  RH WIND       PRES   REMARKS
REGINA         FLURRIES  28  23  80 SE8       30.14F
MOOSE JAW      MOSUNNY   36  25  64 S9        30.11F
ESTEVAN        CLOUDY    34  21  60 W3        30.16F
SWIFT CURRENT  NOT AVBL




USA.gov is the U.S. government's official web portal to all federal, state and local government web resources and services.